Simultaneous Nadir Overpasses (SNOs) Predictions

Prediction of SNOs between NOAA-19 and TERRA Satellite Orbit:

Table of predicted SNOs for the next 14.0 days since TLE Epoch: 1/5/2019
Index Date (NOAA-19) Time (NOAA-19) Lat,Lon (NOAA-19) SZA (NOAA-19 ) Date (TERRA) Time (TERRA) Lat,Lon (TERRA) SZA (TERRA ) Distance(km) Time Diff (sec)
1 01/05/2019 21:06:50 -77.90, 62.82 79.04 01/05/2019 21:07:49 -77.91, 62.74 79.02 2.42 59
2 01/05/2019 21:57:54 77.89,-129.89 100.95 01/05/2019 21:57:16 77.86,-129.85 100.91 3.37 38
3 01/08/2019 02:40:24 77.93, 159.33 100.70 01/08/2019 02:41:32 77.91, 159.32 100.69 2.34 68
4 01/08/2019 03:31:20 -77.88, -33.14 79.34 01/08/2019 03:31:00 -77.88, -33.20 79.36 1.46 20
5 01/10/2019 09:04:53 77.90, 63.45 100.35 01/10/2019 09:04:42 77.92, 63.55 100.37 2.92 11
6 01/12/2019 14:38:20 -77.90, 160.20 80.01 01/12/2019 14:38:26 -77.93, 160.18 79.98 3.69 6
7 01/14/2019 20:11:52 77.93,-103.27 99.62 01/14/2019 20:12:09 77.91,-103.33 99.61 2.00 17
8 01/14/2019 21:02:50 -77.89, 64.21 80.41 01/14/2019 21:01:37 -77.89, 64.18 80.44 0.68 73
9 01/17/2019 01:45:21 -77.96, -6.72 80.79 01/17/2019 01:45:53 -77.92, -6.73 80.81 3.86 32




NCC Satellite Simultaneous Nadir Overpasses (SNOs) Prediction Service
